| time (UTC) | temp F | wind direction | speed MPH | gust MPH | rain 1hr in | rain 24hr in | rain mn in | humidity % | barometer mb |
| 20260905055038 | 67 | 225 | 0.0 | 0.0 | 0.00 | 0.00 | 0.00 | 1011.8 | |
| 20260905054938 | 67 | 225 | 0.0 | 1.0 | 0.00 | 0.00 | 0.00 | 1011.7 | |
| 20260905054238 | 67 | 202 | 0.0 | 0.0 | 0.00 | 0.00 | 0.00 | 1011.5 | |
| 20260905054138 | 67 | 180 | 0.0 | 0.0 | 0.00 | 0.00 | 0.00 | 1011.8 | |
| 20260905054038 | 67 | 202 | 0.0 | 1.0 | 0.00 | 0.00 | 0.00 | 1011.8 | |
| 20260905053938 | 67 | 157 | 0.0 | 2.0 | 0.00 | 0.00 | 0.00 | 1011.7 | |
| 20260905053838 | 68 | 247 | 0.0 | 1.0 | 0.00 | 0.00 | 0.00 | 1011.7 | |
| 20260905053738 | 68 | 337 | 0.0 | 2.0 | 0.00 | 0.00 | 0.00 | 1011.8 | |
| 20260905051238 | 68 | 202 | 1.0 | 2.0 | 0.00 | 0.00 | 0.00 | 1011.6 | |
| 20260905045638 | 68 | 202 | 0.0 | 1.0 | 0.00 | 0.00 | 0.00 | 1011.7 | |
| 20260905045238 | 68 | 135 | 0.0 | 1.0 | 0.00 | 0.00 | 0.00 | 1011.7 | |
| 20260905045138 | 68 | 180 | 0.0 | 0.0 | 0.00 | 0.00 | 0.00 | 1011.7 | |
| 20260905045038 | 68 | 202 | 0.0 | 1.0 | 0.00 | 0.00 | 0.00 | 1011.7 | |
| 20260905044938 | 69 | 157 | 0.0 | 1.0 | 0.00 | 0.00 | 0.00 | 1011.7 | |
| 20260905044538 | 69 | 225 | 1.0 | 2.0 | 0.00 | 0.00 | 0.00 | 1011.7 | |
| 20260905044138 | 69 | 225 | 0.0 | 1.0 | 0.00 | 0.00 | 0.00 | 1011.7 | |
| 20260905044038 | 69 | 225 | 0.0 | 1.0 | 0.00 | 0.00 | 0.00 | 1011.6 | |
| 20260905042738 | 69 | 180 | 0.0 | 2.0 | 0.00 | 0.00 | 0.00 | 1011.5 | |
| 20260905042338 | 69 | 157 | 0.0 | 0.0 | 0.00 | 0.00 | 0.00 | 1011.2 | |
| 20260905042238 | 69 | 157 | 0.0 | 0.0 | 0.00 | 0.00 | 0.00 | 1011.2 | |
| 20260905042139 | 69 | 157 | 0.0 | 1.0 | 0.00 | 0.00 | 0.00 | 1011.2 | |
| 20260905040838 | 70 | 202 | 1.0 | 2.0 | 0.00 | 0.00 | 0.00 | 1011.0 | |
| 20260905040438 | 70 | 292 | 2.0 | 3.0 | 0.00 | 0.00 | 0.00 | 1010.9 | |
| 20260905040338 | 70 | 225 | 2.0 | 4.0 | 0.00 | 0.00 | 0.00 | 1011.2 | |
| 20260905040238 | 70 | 202 | 2.0 | 3.0 | 0.00 | 0.00 | 0.00 | 1010.9 | |
| 20260905035838 | 71 | 202 | 2.0 | 2.0 | 0.00 | 0.00 | 0.00 | 1010.9 | |
| 20260905035738 | 71 | 225 | 2.0 | 3.0 | 0.00 | 0.00 | 0.00 | 1010.9 | |
| 20260905035638 | 71 | 225 | 2.0 | 3.0 | 0.00 | 0.00 | 0.00 | 1010.9 | |
| 20260905035538 | 71 | 225 | 0.0 | 1.0 | 0.00 | 0.00 | 0.00 | 1010.9 | |
| 20260905034838 | 71 | 180 | 0.0 | 1.0 | 0.00 | 0.00 | 0.00 | 1010.9 | |
| 20260905032338 | 72 | 202 | 1.0 | 3.0 | 0.00 | 0.00 | 0.00 | 1010.4 | |
| 20260905032238 | 72 | 225 | 1.0 | 3.0 | 0.00 | 0.00 | 0.00 | 1010.4 | |
| 20260905031838 | 72 | 225 | 2.0 | 4.0 | 0.00 | 0.00 | 0.00 | 1010.4 | |
| 20260905031738 | 73 | 247 | 1.0 | 4.0 | 0.00 | 0.00 | 0.00 | 1010.4 | |
| 20260905031638 | 73 | 247 | 1.0 | 4.0 | 0.00 | 0.00 | 0.00 | 1010.4 | |
| 20260905030938 | 73 | 67 | 0.0 | 1.0 | 0.00 | 0.00 | 0.00 | 1010.4 | |
| 20260905030538 | 73 | 157 | 1.0 | 3.0 | 0.00 | 0.00 | 0.00 | 1010.5 | |
| 20260905030138 | 73 | 202 | 2.0 | 4.0 | 0.00 | 0.00 | 0.00 | 1010.5 | |
| 20260905030038 | 73 | 270 | 0.0 | 1.0 | 0.00 | 0.00 | 0.00 | 1010.5 | |
| 20260905025938 | 73 | 270 | 1.0 | 2.0 | 0.00 | 0.00 | 0.00 | 1010.1 | |
| 20260905025838 | 73 | 157 | 1.0 | 3.0 | 0.00 | 0.00 | 0.00 | 1010.4 | |
| 20260905025438 | 74 | 247 | 2.0 | 3.0 | 0.00 | 0.00 | 0.00 | 1010.3 | |
| 20260905024438 | 74 | 202 | 1.0 | 2.0 | 0.00 | 0.00 | 0.00 | 1010.0 | |
| 20260905024338 | 74 | 202 | 1.0 | 2.0 | 0.00 | 0.00 | 0.00 | 1010.0 | |
| 20260905024238 | 74 | 247 | 0.0 | 1.0 | 0.00 | 0.00 | 0.00 | 1010.3 | |
| 20260905024138 | 74 | 202 | 1.0 | 2.0 | 0.00 | 0.00 | 0.00 | 1010.1 | |
| 20260905024038 | 74 | 202 | 0.0 | 0.0 | 0.00 | 0.00 | 0.00 | 1010.3 | |
| 20260905023938 | 74 | 180 | 1.0 | 2.0 | 0.00 | 0.00 | 0.00 | 1010.3 | |
| 20260905023238 | 74 | 180 | 1.0 | 2.0 | 0.00 | 0.00 | 0.00 | 1010.3 | |
| 20260905023138 | 74 | 202 | 1.0 | 2.0 | 0.00 | 0.00 | 0.00 | 1010.4 | |
| 20260905022738 | 75 | 180 | 0.0 | 0.0 | 0.00 | 0.00 | 0.00 | 1010.3 | |
| 20260905022638 | 75 | 157 | 1.0 | 2.0 | 0.00 | 0.00 | 0.00 | 1010.3 | |
| 20260905021938 | 75 | 225 | 1.0 | 3.0 | 0.00 | 0.00 | 0.00 | 1010.2 | |
| 20260905021538 | 75 | 180 | 2.0 | 3.0 | 0.00 | 0.00 | 0.00 | 1010.3 | |
| 20260905021438 | 76 | 225 | 2.0 | 4.0 | 0.00 | 0.00 | 0.00 | 1010.2 | |
| 20260905021338 | 76 | 180 | 1.0 | 2.0 | 0.00 | 0.00 | 0.00 | 1010.2 | |
| 20260905021238 | 76 | 225 | 2.0 | 4.0 | 0.00 | 0.00 | 0.00 | 1010.4 | |
| 20260905021138 | 76 | 225 | 3.0 | 4.0 | 0.00 | 0.00 | 0.00 | 1010.2 | |
| 20260905020738 | 76 | 247 | 3.0 | 4.0 | 0.00 | 0.00 | 0.00 | 1010.4 | |
| 20260905015138 | 77 | 225 | 1.0 | 3.0 | 0.00 | 0.00 | 0.00 | 1010.2 | |
| 20260905014438 | 77 | 135 | 2.0 | 3.0 | 0.00 | 0.00 | 0.00 | 1010.2 | |
| 20260905014338 | 77 | 157 | 2.0 | 4.0 | 0.00 | 0.00 | 0.00 | 1010.3 | |
| 20260905013038 | 79 | 135 | 2.0 | 4.0 | 0.00 | 0.00 | 0.00 | 1010.3 | |
| 20260905012038 | 79 | 247 | 6.0 | 7.0 | 0.00 | 0.00 | 0.00 | 1010.4 | |
| 20260905011638 | 80 | 202 | 1.0 | 2.0 | 0.00 | 0.00 | 0.00 | 1010.3 | |
| 20260905011238 | 80 | 157 | 3.0 | 5.0 | 0.00 | 0.00 | 0.00 | 1010.4 | |
| 20260905011138 | 80 | 225 | 3.0 | 5.0 | 0.00 | 0.00 | 0.00 | 1010.3 | |
| 20260905005238 | 81 | 202 | 3.0 | 6.0 | 0.00 | 0.00 | 0.00 | 1010.4 | |
| 20260905005138 | 81 | 135 | 1.0 | 2.0 | 0.00 | 0.00 | 0.00 | 1010.3 | |
| 20260905005038 | 81 | 202 | 4.0 | 8.0 | 0.00 | 0.00 | 0.00 | 1010.3 | |
| 20260905004638 | 81 | 202 | 4.0 | 5.0 | 0.00 | 0.00 | 0.00 | 1010.3 | |
| 20260905004538 | 81 | 225 | 3.0 | 5.0 | 0.00 | 0.00 | 0.00 | 1010.2 | |
| 20260905004438 | 81 | 247 | 2.0 | 3.0 | 0.00 | 0.00 | 0.00 | 1010.3 | |
| 20260905004038 | 81 | 202 | 2.0 | 6.0 | 0.00 | 0.00 | 0.00 | 1010.3 | |
| 20260905003638 | 82 | 225 | 5.0 | 7.0 | 0.00 | 0.00 | 0.00 | 1010.4 | |
| 20260905003538 | 82 | 202 | 3.0 | 5.0 | 0.00 | 0.00 | 0.00 | 1010.2 | |
| 20260905003438 | 82 | 180 | 4.0 | 7.0 | 0.00 | 0.00 | 0.00 | 1010.2 | |
| 20260905001838 | 83 | 202 | 2.0 | 3.0 | 0.00 | 0.00 | 0.00 | 1010.3 | |
| 20260905001738 | 83 | 247 | 1.0 | 2.0 | 0.00 | 0.00 | 0.00 | 1010.1 | |
| 20260905001638 | 83 | 180 | 1.0 | 2.0 | 0.00 | 0.00 | 0.00 | 1010.2 | |
| 20260905001238 | 83 | 180 | 2.0 | 3.0 | 0.00 | 0.00 | 0.00 | 1010.1 | |
| 20260905001138 | 83 | 225 | 3.0 | 7.0 | 0.00 | 0.00 | 0.00 | 1010.4 | |
| 20260905000738 | 83 | 157 | 3.0 | 6.0 | 0.00 | 0.00 | 0.00 | 1010.4 | |
| 20260905000340 | 84 | 225 | 1.0 | 3.0 | 0.00 | 0.00 | 0.00 | 1010.1 | |
| 20260904235938 | 84 | 225 | 3.0 | 5.0 | 0.00 | 0.00 | 0.00 | 1010.3 | |
| 20260904235238 | 84 | 225 | 5.0 | 7.0 | 0.00 | 0.00 | 0.00 | 1010.2 | |
| 20260904235138 | 84 | 225 | 4.0 | 8.0 | 0.00 | 0.00 | 0.00 | 1010.3 | |
| 20260904234738 | 84 | 202 | 3.0 | 7.0 | 0.00 | 0.00 | 0.00 | 1010.1 | |
| 20260904234638 | 84 | 225 | 5.0 | 8.0 | 0.00 | 0.00 | 0.00 | 1010.3 | |
| 20260904234238 | 84 | 202 | 5.0 | 7.0 | 0.00 | 0.00 | 0.00 | 1010.2 | |
| 20260904233840 | 85 | 225 | 4.0 | 6.0 | 0.00 | 0.00 | 0.00 | 1010.2 | |
| 20260904233738 | 85 | 157 | 2.0 | 3.0 | 0.00 | 0.00 | 0.00 | 1010.1 | |
| 20260904233643 | 85 | 202 | 4.0 | 7.0 | 0.00 | 0.00 | 0.00 | 1010.1 | |
| 20260904233238 | 85 | 180 | 4.0 | 6.0 | 0.00 | 0.00 | 0.00 | 1010.2 | |
| 20260904233138 | 85 | 202 | 4.0 | 8.0 | 0.00 | 0.00 | 0.00 | 1010.2 | |
| 20260904233038 | 85 | 180 | 2.0 | 6.0 | 0.00 | 0.00 | 0.00 | 1010.5 | |
| 20260904232938 | 85 | 157 | 3.0 | 8.0 | 0.00 | 0.00 | 0.00 | 1010.2 | |
| 20260904232538 | 85 | 225 | 4.0 | 6.0 | 0.00 | 0.00 | 0.00 | 1010.1 | |
| 20260904232138 | 85 | 180 | 4.0 | 10.0 | 0.00 | 0.00 | 0.00 | 1010.2 | |
| 20260904232038 | 85 | 157 | 5.0 | 8.0 | 0.00 | 0.00 | 0.00 | 1010.5 | |
| 20260904231338 | 86 | 202 | 3.0 | 4.0 | 0.00 | 0.00 | 0.00 | 1010.3 | |
| 20260904231238 | 86 | 180 | 4.0 | 8.0 | 0.00 | 0.00 | 0.00 | 1010.2 | |
| 20260904230538 | 87 | 180 | 2.0 | 4.0 | 0.00 | 0.00 | 0.00 | 1010.3 | |
| 20260904230438 | 87 | 270 | 3.0 | 5.0 | 0.00 | 0.00 | 0.00 | 1010.3 | |
| 20260904225738 | 88 | 202 | 4.0 | 6.0 | 0.00 | 0.00 | 0.00 | 1010.3 | |
| 20260904225338 | 89 | 202 | 3.0 | 4.0 | 0.00 | 0.00 | 0.00 | 1010.5 | |
| 20260904224938 | 90 | 225 | 2.0 | 4.0 | 0.00 | 0.00 | 0.00 | 1010.5 | |
| 20260904224538 | 91 | 225 | 3.0 | 6.0 | 0.00 | 0.00 | 0.00 | 1010.6 | |
| 20260904224438 | 91 | 180 | 2.0 | 5.0 | 0.00 | 0.00 | 0.00 | 1010.4 | |
| 20260904224338 | 91 | 202 | 3.0 | 8.0 | 0.00 | 0.00 | 0.00 | 1010.4 | |
| 20260904224238 | 92 | 225 | 7.0 | 11.0 | 0.00 | 0.00 | 0.00 | 1010.4 | |
| 20260904223838 | 91 | 180 | 1.0 | 2.0 | 0.00 | 0.00 | 0.00 | 1010.3 | |
| 20260904223738 | 91 | 157 | 1.0 | 3.0 | 0.00 | 0.00 | 0.00 | 1010.4 | |
| 20260904223638 | 91 | 225 | 2.0 | 4.0 | 0.00 | 0.00 | 0.00 | 1010.5 | |
| 20260904222938 | 92 | 180 | 4.0 | 6.0 | 0.00 | 0.00 | 0.00 | 1010.5 | |
| 20260904221638 | 94 | 157 | 1.0 | 3.0 | 0.00 | 0.00 | 0.00 | 1010.4 | |
| 20260904221238 | 93 | 180 | 2.0 | 4.0 | 0.00 | 0.00 | 0.00 | 1010.4 | |
| 20260904221138 | 93 | 202 | 2.0 | 4.0 | 0.00 | 0.00 | 0.00 | 1010.4 | |
| 20260904221038 | 94 | 247 | 2.0 | 3.0 | 0.00 | 0.00 | 0.00 | 1010.5 | |
| 20260904215438 | 91 | 202 | 2.0 | 4.0 | 0.00 | 0.00 | 0.00 | 1010.6 | |
| 20260904214438 | 93 | 157 | 4.0 | 8.0 | 0.00 | 0.00 | 0.00 | 1010.5 | |
| 20260904213139 | 92 | 202 | 2.0 | 3.0 | 0.00 | 0.00 | 0.00 | 1010.7 | |
| 20260904213038 | 92 | 202 | 1.0 | 3.0 | 0.00 | 0.00 | 0.00 | 1010.6 | |
| 20260904105019 | 63 | 225 | 0.0 | 1.0 | 0.00 | 0.00 | 0.00 | 1011.2 | |
| 20260904104919 | 63 | 202 | 0.0 | 1.0 | 0.00 | 0.00 | 0.00 | 1011.0 | |
| 20260904104818 | 63 | 180 | 0.0 | 0.0 | 0.00 | 0.00 | 0.00 | 1011.0 | |
| 20260904104718 | 63 | 157 | 1.0 | 1.0 | 0.00 | 0.00 | 0.00 | 1011.0 | |
| 20260904104319 | 63 | 225 | 1.0 | 2.0 | 0.00 | 0.00 | 0.00 | 1011.0 | |
| 20260904104218 | 63 | 202 | 1.0 | 2.0 | 0.00 | 0.00 | 0.00 | 1011.0 | |
| 20260904104119 | 63 | 225 | 2.0 | 2.0 | 0.00 | 0.00 | 0.00 | 1011.0 | |
| 20260904103719 | 63 | 270 | 1.0 | 2.0 | 0.00 | 0.00 | 0.00 | 1011.0 | |
| 20260904103618 | 63 | 202 | 1.0 | 2.0 | 0.00 | 0.00 | 0.00 | 1010.9 | |
| 20260904102918 | 63 | 225 | 0.0 | 0.0 | 0.00 | 0.00 | 0.00 | 1011.2 | |
| 20260904102820 | 63 | 247 | 0.0 | 1.0 | 0.00 | 0.00 | 0.00 | 1011.0 | |
| 20260904102719 | 63 | 225 | 1.0 | 1.0 | 0.00 | 0.00 | 0.00 | 1011.0 | |
| 20260904102619 | 63 | 225 | 1.0 | 1.0 | 0.00 | 0.00 | 0.00 | 1011.3 | |
| 20260904101919 | 63 | 247 | 0.0 | 1.0 | 0.00 | 0.00 | 0.00 | 1010.9 | |
| 20260904101519 | 63 | 225 | 1.0 | 1.0 | 0.00 | 0.00 | 0.00 | 1010.9 | |
| 20260904100819 | 62 | 225 | 0.0 | 1.0 | 0.00 | 0.00 | 0.00 | 1011.0 | |
| 20260904100119 | 62 | 225 | 0.0 | 0.0 | 0.00 | 0.00 | 0.00 | 1011.0 | |
| 20260904095718 | 62 | 202 | 0.0 | 0.0 | 0.00 | 0.00 | 0.00 | 1011.0 | |
| 20260904095619 | 62 | 202 | 0.0 | 0.0 | 0.00 | 0.00 | 0.00 | 1011.0 | |
| 20260904095519 | 62 | 270 | 0.0 | 0.0 | 0.00 | 0.00 | 0.00 | 1011.0 | |
| 20260904095418 | 62 | 247 | 0.0 | 0.0 | 0.00 | 0.00 | 0.00 | 1010.9 | |
| 20260904095018 | 61 | 337 | 0.0 | 0.0 | 0.00 | 0.00 | 0.00 | 1011.1 | |
| 20260904094919 | 61 | 0 | 0.0 | 0.0 | 0.00 | 0.00 | 0.00 | 1011.0 | |
| 20260904094219 | 61 | 22 | 0.0 | 1.0 | 0.00 | 0.00 | 0.00 | 1010.9 | |
| 20260904092918 | 59 | 292 | 0.0 | 0.0 | 0.00 | 0.00 | 0.00 | 1011.1 | |
| 20260904092819 | 59 | 292 | 0.0 | 0.0 | 0.00 | 0.00 | 0.00 | 1010.9 | |
| 20260904092719 | 59 | 22 | 0.0 | 0.0 | 0.00 | 0.00 | 0.00 | 1011.1 | |
| 20260904092619 | 59 | 0 | 0.0 | 0.0 | 0.00 | 0.00 | 0.00 | 1011.0 | |
| 20260904091619 | 58 | 22 | 0.0 | 0.0 | 0.00 | 0.00 | 0.00 | 1010.8 | |
| 20260904091219 | 58 | 22 | 0.0 | 0.0 | 0.00 | 0.00 | 0.00 | 1010.9 | |
| 20260904090519 | 58 | 22 | 0.0 | 0.0 | 0.00 | 0.00 | 0.00 | 1011.0 | |
| 20260904090419 | 58 | 22 | 0.0 | 0.0 | 0.00 | 0.00 | 0.00 | 1011.0 | |
| 20260904090318 | 58 | 22 | 0.0 | 0.0 | 0.00 | 0.00 | 0.00 | 1011.0 | |
| 20260904084119 | 59 | 0 | 0.0 | 0.0 | 0.00 | 0.00 | 0.00 | 1010.9 | |
| 20260904084019 | 59 | 0 | 0.0 | 0.0 | 0.00 | 0.00 | 0.00 | 1011.0 | |
| 20260904083919 | 59 | 0 | 0.0 | 0.0 | 0.00 | 0.00 | 0.00 | 1011.1 | |
| 20260904083818 | 59 | 0 | 0.0 | 0.0 | 0.00 | 0.00 | 0.00 | 1011.1 | |
| 20260904083719 | 59 | 0 | 0.0 | 0.0 | 0.00 | 0.00 | 0.00 | 1011.0 | |
| 20260904083319 | 59 | 0 | 0.0 | 0.0 | 0.00 | 0.00 | 0.00 | 1011.0 | |
| 20260904083218 | 59 | 0 | 0.0 | 0.0 | 0.00 | 0.00 | 0.00 | 1011.0 | |
| 20260904082218 | 59 | 0 | 0.0 | 0.0 | 0.00 | 0.00 | 0.00 | 1010.9 | |
| 20260904081519 | 59 | 0 | 0.0 | 0.0 | 0.00 | 0.00 | 0.00 | 1011.0 | |
| 20260904081419 | 59 | 337 | 0.0 | 0.0 | 0.00 | 0.00 | 0.00 | 1011.0 | |
| 20260904080419 | 60 | 315 | 0.0 | 0.0 | 0.00 | 0.00 | 0.00 | 1011.1 | |
| 20260904080319 | 60 | 337 | 0.0 | 0.0 | 0.00 | 0.00 | 0.00 | 1011.2 | |
| 20260904075919 | 60 | 315 | 0.0 | 1.0 | 0.00 | 0.00 | 0.00 | 1011.1 | |
| 20260904074919 | 60 | 315 | 0.0 | 0.0 | 0.00 | 0.00 | 0.00 | 1011.2 | |
| 20260904073918 | 60 | 337 | 0.0 | 0.0 | 0.00 | 0.00 | 0.00 | 1011.1 | |
| 20260904073519 | 60 | 337 | 0.0 | 0.0 | 0.00 | 0.00 | 0.00 | 1011.2 | |
| 20260904073419 | 60 | 337 | 0.0 | 0.0 | 0.00 | 0.00 | 0.00 | 1011.2 | |
| 20260904073319 | 60 | 337 | 0.0 | 0.0 | 0.00 | 0.00 | 0.00 | 1011.1 | |
| 20260904073218 | 60 | 337 | 0.0 | 0.0 | 0.00 | 0.00 | 0.00 | 1011.1 | |
| 20260904073119 | 60 | 337 | 0.0 | 0.0 | 0.00 | 0.00 | 0.00 | 1011.2 | |
| 20260904071819 | 61 | 337 | 0.0 | 0.0 | 0.00 | 0.00 | 0.00 | 1010.9 | |
| 20260904071418 | 61 | 337 | 0.0 | 0.0 | 0.00 | 0.00 | 0.00 | 1011.1 | |
| 20260904071018 | 61 | 202 | 0.0 | 0.0 | 0.00 | 0.00 | 0.00 | 1010.9 | |
| 20260904070619 | 61 | 202 | 0.0 | 0.0 | 0.00 | 0.00 | 0.00 | 1011.2 | |
| 20260904070518 | 62 | 202 | 0.0 | 0.0 | 0.00 | 0.00 | 0.00 | 1010.9 | |
| 20260904070419 | 62 | 202 | 0.0 | 0.0 | 0.00 | 0.00 | 0.00 | 1011.1 | |
| 20260904065718 | 62 | 202 | 0.0 | 0.0 | 0.00 | 0.00 | 0.00 | 1011.3 | |
| 20260904065318 | 63 | 225 | 0.0 | 1.0 | 0.00 | 0.00 | 0.00 | 1011.0 | |
| 20260904064618 | 63 | 202 | 1.0 | 2.0 | 0.00 | 0.00 | 0.00 | 1010.9 | |
| 20260904063919 | 63 | 157 | 0.0 | 0.0 | 0.00 | 0.00 | 0.00 | 1011.0 | |
| 20260904063519 | 63 | 135 | 0.0 | 0.0 | 0.00 | 0.00 | 0.00 | 1011.2 | |
| 20260904063419 | 63 | 135 | 0.0 | 0.0 | 0.00 | 0.00 | 0.00 | 1011.2 | |
| 20260904063018 | 63 | 135 | 0.0 | 1.0 | 0.00 | 0.00 | 0.00 | 1011.2 | |
| 20260904062919 | 63 | 135 | 0.0 | 0.0 | 0.00 | 0.00 | 0.00 | 1011.1 | |
| 20260904062818 | 63 | 157 | 0.0 | 1.0 | 0.00 | 0.00 | 0.00 | 1011.0 | |
| 20260904062419 | 64 | 180 | 0.0 | 0.0 | 0.00 | 0.00 | 0.00 | 1010.9 | |
| 20260904062318 | 64 | 180 | 0.0 | 0.0 | 0.00 | 0.00 | 0.00 | 1010.9 | |
| 20260904062219 | 64 | 180 | 0.0 | 0.0 | 0.00 | 0.00 | 0.00 | 1010.9 | |
| 20260904061818 | 64 | 157 | 0.0 | 0.0 | 0.00 | 0.00 | 0.00 | 1011.0 | |
| 20260904061719 | 64 | 157 | 0.0 | 0.0 | 0.00 | 0.00 | 0.00 | 1011.1 | |
| 20260904061019 | 65 | 247 | 0.0 | 0.0 | 0.00 | 0.00 | 0.00 | 1010.8 | |
| 20260904060319 | 65 | 157 | 0.0 | 0.0 | 0.00 | 0.00 | 0.00 | 1010.6 | |
| 20260904060219 | 65 | 157 | 0.0 | 0.0 | 0.00 | 0.00 | 0.00 | 1010.7 | |
| 20260904060118 | 65 | 202 | 0.0 | 0.0 | 0.00 | 0.00 | 0.00 | 1010.7 | |
| 20260904060019 | 65 | 202 | 0.0 | 0.0 | 0.00 | 0.00 | 0.00 | 1010.5 | |
| 20260904055918 | 66 | 202 | 0.0 | 0.0 | 0.00 | 0.00 | 0.00 | 1010.8 | |
| 20260904055519 | 66 | 157 | 0.0 | 0.0 | 0.00 | 0.00 | 0.00 | 1010.8 |